Flag Weather past 2 weeks in Irving, Texas, U.S.A.

Now
46 °F

Clear.


Feels Like: 41 °F
Forecast: 43 / 65 °F
Wind: 9 mph from South

Location: Dallas / Fort Worth International Airport

Current Time: Nov 27, 2014 at 10:37:45 PM

Latest Report: Nov 27, 2014 at 9:53 PM


Visibility: 10 mi

Pressure: 30.36 "Hg

Humidity: 50%

Dew point: 28 °F

Location of IrvingLocation

Historic Weather in Irving — Graph

°F

Irving temperature yesterday

Maximum temperature yesterday: 63 °F (at 1:53 PM)
Minimum temperature yesterday: 39 °F (at 3:53 AM)
Average temperature yesterday: 50 °F

Past Weeks' High & Low Weather Summary

 TemperatureHumidityPressure
High75 °F (Nov 23, 2:53 PM)100% (Nov 15, 8:53 PM)30.61 "Hg (Nov 15, 8:53 PM)
Low23 °F (Nov 17, 6:53 AM)20% (Nov 18, 12:53 PM)29.37 "Hg (Nov 23, 1:53 PM)
Average46 °F62%30.17 "Hg
* Reported Nov 12 8:53 PM — Nov 27 8:53 PM, Irving, Weather by CustomWeather, © 2014

Note: Actual official high and low records may vary slightly from our data, if they occured in-between our weather recording intervals... More about our weather records

Advertising

Irving weather history for previous 24 hours

 ConditionsComfort  
Time TempWeatherWind HumidityBarometerVisibility
8:53 PM
Nov 27
47 °FClear.3 mph44%30.37 "Hg10 mi
7:53 PM48 °FPassing clouds.7 mph43%30.37 "Hg10 mi
6:53 PM49 °FPassing clouds.6 mph36%30.38 "Hg10 mi
5:53 PM51 °FPassing clouds.6 mph32%30.40 "Hg10 mi
4:53 PM55 °FPassing clouds.3 mph27%30.41 "Hg10 mi
3:53 PM56 °FPassing clouds.No wind24%30.41 "Hg10 mi
2:53 PM56 °FSunny.6 mph24%30.42 "Hg10 mi
1:53 PM55 °FSunny.No wind24%30.44 "Hg10 mi
12:53 PM54 °FPassing clouds.3 mph26%30.47 "Hg10 mi
11:53 AM51 °FPassing clouds.3 mph33%30.51 "Hg10 mi
10:53 AM48 °FPassing clouds.6 mph39%30.53 "Hg10 mi
9:53 AM45 °FPassing clouds.3 mph48%30.55 "Hg10 mi
8:53 AM42 °FPassing clouds.8 mph53%30.53 "Hg10 mi
7:53 AM39 °FPassing clouds.8 mph62%30.51 "Hg10 mi
6:53 AM37 °FClear.8 mph67%30.50 "Hg10 mi
5:53 AM38 °FClear.12 mph68%30.47 "Hg10 mi
4:53 AM40 °FClear.10 mph63%30.46 "Hg10 mi
3:53 AM41 °FClear.8 mph58%30.47 "Hg10 mi
2:53 AM41 °FClear.9 mph58%30.45 "Hg10 mi
1:53 AM44 °FClear.10 mph53%30.43 "Hg10 mi
12:53 AM45 °FClear.12 mph49%30.40 "Hg10 mi
11:53 PM
Nov 26
47 °FClear.10 mph52%30.38 "Hg10 mi
10:53 PM47 °FClear.13 mph56%30.37 "Hg10 mi
Weather by CustomWeather, © 2014

See weather overviewHow to use our weather pages